Year,Month,Day,Hour,Minute,Value (Times are PST for temperature in C)
2007,09,19,00,00,8.20
2007,09,19,00,01,8.20
2007,09,19,00,02,8.20
2007,09,19,00,03,8.20
2007,09,19,00,04,8.20
2007,09,19,00,05,8.10
2007,09,19,00,06,8.10
2007,09,19,00,07,8.10
2007,09,19,00,08,8.10
2007,09,19,00,09,8.10
2007,09,19,00,10,8.00
2007,09,19,00,11,8.00
2007,09,19,00,12,8.00
2007,09,19,00,13,8.00
2007,09,19,00,14,8.00
2007,09,19,00,15,8.00
2007,09,19,00,16,8.00
2007,09,19,00,17,7.90
2007,09,19,00,18,7.90
2007,09,19,00,19,7.90
2007,09,19,00,20,7.90
2007,09,19,00,21,7.90
2007,09,19,00,22,7.90
2007,09,19,00,23,7.80
2007,09,19,00,24,7.80
2007,09,19,00,25,7.80
2007,09,19,00,26,7.80
2007,09,19,00,27,7.80
2007,09,19,00,28,7.80
2007,09,19,00,29,7.80
2007,09,19,00,30,7.80
2007,09,19,00,31,7.80
2007,09,19,00,32,7.80
2007,09,19,00,33,7.70
2007,09,19,00,34,7.80
2007,09,19,00,35,7.80
2007,09,19,00,36,7.80
2007,09,19,00,37,7.80
2007,09,19,00,38,7.80
2007,09,19,00,39,7.80
2007,09,19,00,40,7.80
2007,09,19,00,41,7.80
2007,09,19,00,42,7.80
2007,09,19,00,43,7.80
2007,09,19,00,44,7.80
2007,09,19,00,45,7.80
2007,09,19,00,46,7.80
2007,09,19,00,47,7.80
2007,09,19,00,48,7.90
2007,09,19,00,49,7.90
2007,09,19,00,50,7.90
2007,09,19,00,51,7.80
2007,09,19,00,52,7.80
2007,09,19,00,53,7.80
2007,09,19,00,54,7.70
2007,09,19,00,55,7.70
2007,09,19,00,56,7.80
2007,09,19,00,57,7.80
2007,09,19,00,58,7.80
2007,09,19,00,59,7.80
2007,09,19,01,00,7.80
2007,09,19,01,01,7.80
2007,09,19,01,02,7.80
2007,09,19,01,03,7.70
2007,09,19,01,04,7.70
2007,09,19,01,05,7.70
2007,09,19,01,06,7.70
2007,09,19,01,07,7.70
2007,09,19,01,08,7.70
2007,09,19,01,09,7.70
2007,09,19,01,10,7.70
2007,09,19,01,11,7.70
2007,09,19,01,12,7.60
2007,09,19,01,13,7.60
2007,09,19,01,14,7.60
2007,09,19,01,15,7.70
2007,09,19,01,16,7.70
2007,09,19,01,17,7.70
2007,09,19,01,18,7.70
2007,09,19,01,19,7.70
2007,09,19,01,20,7.80
2007,09,19,01,21,7.80
2007,09,19,01,22,7.80
2007,09,19,01,23,7.80
2007,09,19,01,24,7.80
2007,09,19,01,25,7.80
2007,09,19,01,26,7.80
2007,09,19,01,27,7.80
2007,09,19,01,28,7.80
2007,09,19,01,29,7.80
2007,09,19,01,30,7.80
2007,09,19,01,31,7.80
2007,09,19,01,32,7.80
2007,09,19,01,33,7.80
2007,09,19,01,34,7.80
2007,09,19,01,35,7.80
2007,09,19,01,36,7.80
2007,09,19,01,37,7.80
2007,09,19,01,38,7.80
2007,09,19,01,39,7.80
2007,09,19,01,40,7.80
2007,09,19,01,41,7.80
2007,09,19,01,42,7.80
2007,09,19,01,43,7.80
2007,09,19,01,44,7.90
2007,09,19,01,45,7.90
2007,09,19,01,46,7.90
2007,09,19,01,47,7.90
2007,09,19,01,48,7.90
2007,09,19,01,49,7.80
2007,09,19,01,50,7.80
2007,09,19,01,51,7.80
2007,09,19,01,52,7.80
2007,09,19,01,53,7.80
2007,09,19,01,54,7.80
2007,09,19,01,55,7.80
2007,09,19,01,56,7.80
2007,09,19,01,57,7.70
2007,09,19,01,58,7.70
2007,09,19,01,59,7.70
2007,09,19,02,00,7.70
2007,09,19,02,01,7.60
2007,09,19,02,02,7.60
2007,09,19,02,03,7.60
2007,09,19,02,04,7.50
2007,09,19,02,05,7.50
2007,09,19,02,06,7.40
2007,09,19,02,07,7.50
2007,09,19,02,08,7.50
2007,09,19,02,09,7.40
2007,09,19,02,10,7.40
2007,09,19,02,11,7.40
2007,09,19,02,12,7.50
2007,09,19,02,13,7.50
2007,09,19,02,14,7.60
2007,09,19,02,15,7.60
2007,09,19,02,16,7.60
2007,09,19,02,17,7.60
2007,09,19,02,18,7.60
2007,09,19,02,19,7.70
2007,09,19,02,20,7.70
2007,09,19,02,21,7.70
2007,09,19,02,22,7.70
2007,09,19,02,23,7.70
2007,09,19,02,24,7.70
2007,09,19,02,25,7.70
2007,09,19,02,26,7.70
2007,09,19,02,27,7.70
2007,09,19,02,28,7.70
2007,09,19,02,29,7.70
2007,09,19,02,30,7.70
2007,09,19,02,31,7.70
2007,09,19,02,32,7.70
2007,09,19,02,33,7.70
2007,09,19,02,34,7.70
2007,09,19,02,35,7.70
2007,09,19,02,36,7.70
2007,09,19,02,37,7.60
2007,09,19,02,38,7.60
2007,09,19,02,39,7.60
2007,09,19,02,40,7.50
2007,09,19,02,41,7.50
2007,09,19,02,42,7.50
2007,09,19,02,43,7.50
2007,09,19,02,44,7.50
2007,09,19,02,45,7.50
2007,09,19,02,46,7.40
2007,09,19,02,47,7.40
2007,09,19,02,48,7.40
2007,09,19,02,49,7.40
2007,09,19,02,50,7.50
2007,09,19,02,51,7.40
2007,09,19,02,52,7.40
2007,09,19,02,53,7.40
2007,09,19,02,54,7.40
2007,09,19,02,55,7.40
2007,09,19,02,56,7.40
2007,09,19,02,57,7.40
2007,09,19,02,58,7.30
2007,09,19,02,59,7.30
2007,09,19,03,00,7.30
2007,09,19,03,01,7.30
2007,09,19,03,02,7.20
2007,09,19,03,03,7.20
2007,09,19,03,04,7.20
2007,09,19,03,05,7.20
2007,09,19,03,06,7.20
2007,09,19,03,07,7.20
2007,09,19,03,08,7.20
2007,09,19,03,09,7.20
2007,09,19,03,10,7.20
2007,09,19,03,11,7.20
2007,09,19,03,12,7.30
2007,09,19,03,13,7.30
2007,09,19,03,14,7.30
2007,09,19,03,15,7.40
2007,09,19,03,16,7.40
2007,09,19,03,17,7.40
2007,09,19,03,18,7.30
2007,09,19,03,19,7.30
2007,09,19,03,20,7.30
2007,09,19,03,21,7.40
2007,09,19,03,22,7.40
2007,09,19,03,23,7.40
2007,09,19,03,24,7.40
2007,09,19,03,25,7.40
2007,09,19,03,26,7.50
2007,09,19,03,27,7.50
2007,09,19,03,28,7.50
2007,09,19,03,29,7.60
2007,09,19,03,30,7.60
2007,09,19,03,31,7.60
2007,09,19,03,32,7.70
2007,09,19,03,33,7.70
2007,09,19,03,34,7.70
2007,09,19,03,35,7.80
2007,09,19,03,36,7.80
2007,09,19,03,37,7.80
2007,09,19,03,38,7.90
2007,09,19,03,39,7.90
2007,09,19,03,40,7.90
2007,09,19,03,41,8.00
2007,09,19,03,42,8.10
2007,09,19,03,43,8.10
2007,09,19,03,44,8.10
2007,09,19,03,45,8.10
2007,09,19,03,46,8.10
2007,09,19,03,47,8.10
2007,09,19,03,48,8.20
2007,09,19,03,49,8.20
2007,09,19,03,50,8.20
2007,09,19,03,51,8.20
2007,09,19,03,52,8.20
2007,09,19,03,53,8.30
2007,09,19,03,54,8.30
2007,09,19,03,55,8.40
2007,09,19,03,56,8.40
2007,09,19,03,57,8.50
2007,09,19,03,58,8.50
2007,09,19,03,59,8.50
2007,09,19,04,00,8.60
2007,09,19,04,01,8.60
2007,09,19,04,02,8.60
2007,09,19,04,03,8.60
2007,09,19,04,04,8.60
2007,09,19,04,05,8.60
2007,09,19,04,06,8.60
2007,09,19,04,07,8.70
2007,09,19,04,08,8.70
2007,09,19,04,09,8.80
2007,09,19,04,10,8.80
2007,09,19,04,11,8.80
2007,09,19,04,12,8.80
2007,09,19,04,13,8.80
2007,09,19,04,14,8.80
2007,09,19,04,15,8.80
2007,09,19,04,16,8.90
2007,09,19,04,17,8.90
2007,09,19,04,18,8.90
2007,09,19,04,19,8.90
2007,09,19,04,20,8.90
2007,09,19,04,21,9.00
2007,09,19,04,22,9.00
2007,09,19,04,23,9.00
2007,09,19,04,24,9.10
2007,09,19,04,25,9.10
2007,09,19,04,26,9.10
2007,09,19,04,27,9.20
2007,09,19,04,28,9.20
2007,09,19,04,29,9.20
2007,09,19,04,30,9.20
2007,09,19,04,31,9.30
2007,09,19,04,32,9.40
2007,09,19,04,33,9.50
2007,09,19,04,34,9.50
2007,09,19,04,35,9.60
2007,09,19,04,36,9.60
2007,09,19,04,37,9.70
2007,09,19,04,38,9.80
2007,09,19,04,39,9.90
2007,09,19,04,40,10.00
2007,09,19,04,41,10.10
2007,09,19,04,42,10.10
2007,09,19,04,43,10.10
2007,09,19,04,44,10.10
2007,09,19,04,45,10.10
2007,09,19,04,46,10.20
2007,09,19,04,47,10.20
2007,09,19,04,48,10.30
2007,09,19,04,49,10.30
2007,09,19,04,50,10.40
2007,09,19,04,51,10.50
2007,09,19,04,52,10.50
2007,09,19,04,53,10.50
2007,09,19,04,54,10.60
2007,09,19,04,55,10.60
2007,09,19,04,56,10.60
2007,09,19,04,57,10.60
2007,09,19,04,58,10.70
2007,09,19,04,59,10.70
2007,09,19,05,00,10.70
2007,09,19,05,01,10.70
2007,09,19,05,02,10.70
2007,09,19,05,03,10.70
2007,09,19,05,04,10.70
2007,09,19,05,05,10.70
2007,09,19,05,06,10.80
2007,09,19,05,07,10.80
2007,09,19,05,08,10.80
2007,09,19,05,09,10.80
2007,09,19,05,10,10.80
2007,09,19,05,11,10.80
2007,09,19,05,12,10.80
2007,09,19,05,13,10.80
2007,09,19,05,14,10.80
2007,09,19,05,15,10.80
2007,09,19,05,16,10.80
2007,09,19,05,17,10.80
2007,09,19,05,18,10.80
2007,09,19,05,19,10.80
2007,09,19,05,20,10.80
2007,09,19,05,21,10.90
2007,09,19,05,22,10.90
2007,09,19,05,23,10.90
2007,09,19,05,24,10.90
2007,09,19,05,25,10.90
2007,09,19,05,26,10.90
2007,09,19,05,27,11.00
2007,09,19,05,28,11.00
2007,09,19,05,29,11.00
2007,09,19,05,30,11.10
2007,09,19,05,31,11.10
2007,09,19,05,32,11.10
2007,09,19,05,33,11.10
2007,09,19,05,34,11.20
2007,09,19,05,35,11.20
2007,09,19,05,36,11.20
2007,09,19,05,37,11.30
2007,09,19,05,38,11.30
2007,09,19,05,39,11.30
2007,09,19,05,40,11.30
2007,09,19,05,41,11.30
2007,09,19,05,42,11.40
2007,09,19,05,43,11.40
2007,09,19,05,44,11.50
2007,09,19,05,45,11.50
2007,09,19,05,46,11.60
2007,09,19,05,47,11.60
2007,09,19,05,48,11.60
2007,09,19,05,49,11.60
2007,09,19,05,50,11.60
2007,09,19,05,51,11.60
2007,09,19,05,52,11.60
2007,09,19,05,53,11.60
2007,09,19,05,54,11.60
2007,09,19,05,55,11.60
2007,09,19,05,56,11.60
2007,09,19,05,57,11.70
2007,09,19,05,58,11.70
2007,09,19,05,59,11.70
2007,09,19,06,00,11.70
2007,09,19,06,01,11.80
2007,09,19,06,02,11.80
2007,09,19,06,03,11.80
2007,09,19,06,04,11.80
2007,09,19,06,05,11.80
2007,09,19,06,06,11.90
2007,09,19,06,07,11.90
2007,09,19,06,08,11.90
2007,09,19,06,09,11.90
2007,09,19,06,10,11.90
2007,09,19,06,11,11.90
2007,09,19,06,12,11.90
2007,09,19,06,13,11.90
2007,09,19,06,14,11.90
2007,09,19,06,15,11.90
2007,09,19,06,16,11.90
2007,09,19,06,17,11.90
2007,09,19,06,18,11.90
2007,09,19,06,19,11.90
2007,09,19,06,20,11.90
2007,09,19,06,21,12.00
2007,09,19,06,22,11.90
2007,09,19,06,23,12.00
2007,09,19,06,24,12.00
2007,09,19,06,25,12.00
2007,09,19,06,26,12.00
2007,09,19,06,27,12.00
2007,09,19,06,28,12.00
2007,09,19,06,29,12.00
2007,09,19,06,30,12.00
2007,09,19,06,31,12.00
2007,09,19,06,32,12.00
2007,09,19,06,33,12.00
2007,09,19,06,34,12.00
2007,09,19,06,35,12.00
2007,09,19,06,36,12.00
2007,09,19,06,37,12.00
2007,09,19,06,38,12.00
2007,09,19,06,39,12.00
2007,09,19,06,40,12.00
2007,09,19,06,41,12.00
2007,09,19,06,42,12.10
2007,09,19,06,43,12.10
2007,09,19,06,44,12.10
2007,09,19,06,45,12.10
2007,09,19,06,46,12.10
2007,09,19,06,47,12.10
2007,09,19,06,48,12.10
2007,09,19,06,49,12.10
2007,09,19,06,50,12.10
2007,09,19,06,51,12.10
2007,09,19,06,52,12.10
2007,09,19,06,53,12.10
2007,09,19,06,54,12.10
2007,09,19,06,55,12.10
2007,09,19,06,56,12.10
2007,09,19,06,57,12.10
2007,09,19,06,58,12.10
2007,09,19,06,59,12.10
2007,09,19,07,00,12.10
2007,09,19,07,01,12.10
2007,09,19,07,02,12.10
2007,09,19,07,03,12.10
2007,09,19,07,04,12.10
2007,09,19,07,05,12.10
2007,09,19,07,06,12.10
2007,09,19,07,07,12.10
2007,09,19,07,08,12.10
2007,09,19,07,09,12.10
2007,09,19,07,10,12.10
2007,09,19,07,11,12.10
2007,09,19,07,12,12.10
2007,09,19,07,13,12.10
2007,09,19,07,14,12.10
2007,09,19,07,15,12.10
2007,09,19,07,16,12.10
2007,09,19,07,17,12.10
2007,09,19,07,18,12.10
2007,09,19,07,19,12.10
2007,09,19,07,20,12.10
2007,09,19,07,21,12.10
2007,09,19,07,22,12.10
2007,09,19,07,23,12.10
2007,09,19,07,24,12.10
2007,09,19,07,25,12.10
2007,09,19,07,26,12.10
2007,09,19,07,27,12.10
2007,09,19,07,28,12.10
2007,09,19,07,29,12.10
2007,09,19,07,30,12.10
2007,09,19,07,31,12.10
2007,09,19,07,32,12.10
2007,09,19,07,33,12.10
2007,09,19,07,34,12.10
2007,09,19,07,35,12.10
2007,09,19,07,36,12.10
2007,09,19,07,37,12.10
2007,09,19,07,38,12.10
2007,09,19,07,39,12.10
2007,09,19,07,40,12.10
2007,09,19,07,41,12.10
2007,09,19,07,42,12.20
2007,09,19,07,43,12.20
2007,09,19,07,44,12.20
2007,09,19,07,45,12.20
2007,09,19,07,46,12.20
2007,09,19,07,47,12.20
2007,09,19,07,48,12.20
2007,09,19,07,49,12.20
2007,09,19,07,50,12.20
2007,09,19,07,51,12.20
2007,09,19,07,52,12.20
2007,09,19,07,53,12.20
2007,09,19,07,54,12.20
2007,09,19,07,55,12.20
2007,09,19,07,56,12.20
2007,09,19,07,57,12.20
2007,09,19,07,58,12.20
2007,09,19,07,59,12.20
2007,09,19,08,00,12.20
2007,09,19,08,01,12.20
2007,09,19,08,02,12.20
2007,09,19,08,03,12.30
2007,09,19,08,04,12.30
2007,09,19,08,05,12.30
2007,09,19,08,06,12.30
2007,09,19,08,07,12.30
2007,09,19,08,08,12.30
2007,09,19,08,09,12.30
2007,09,19,08,10,12.30
2007,09,19,08,11,12.30
2007,09,19,08,12,12.30
2007,09,19,08,13,12.30
2007,09,19,08,14,12.30
2007,09,19,08,15,12.30
2007,09,19,08,16,12.40
2007,09,19,08,17,12.40
2007,09,19,08,18,12.40
2007,09,19,08,19,12.40
2007,09,19,08,20,12.40
2007,09,19,08,21,12.40
2007,09,19,08,22,12.40
2007,09,19,08,23,12.40
2007,09,19,08,24,12.40
2007,09,19,08,25,12.40
2007,09,19,08,26,12.40
2007,09,19,08,27,12.40
2007,09,19,08,28,12.40
2007,09,19,08,29,12.40
2007,09,19,08,30,12.40
2007,09,19,08,31,12.40
2007,09,19,08,32,12.40
2007,09,19,08,33,12.40
2007,09,19,08,34,12.40
2007,09,19,08,35,12.40
2007,09,19,08,36,12.50
2007,09,19,08,37,12.50
2007,09,19,08,38,12.50
2007,09,19,08,39,12.50
2007,09,19,08,40,12.50
2007,09,19,08,41,12.50
2007,09,19,08,42,12.50
2007,09,19,08,43,12.50
2007,09,19,08,44,12.50
2007,09,19,08,45,12.50
2007,09,19,08,46,12.50
2007,09,19,08,47,12.50
2007,09,19,08,48,12.50
2007,09,19,08,49,12.50
2007,09,19,08,50,12.50
2007,09,19,08,51,12.50
2007,09,19,08,52,12.50
2007,09,19,08,53,12.50
2007,09,19,08,54,12.50
2007,09,19,08,55,12.60
2007,09,19,08,56,12.60
2007,09,19,08,57,12.60
2007,09,19,08,58,12.60
2007,09,19,08,59,12.60
2007,09,19,09,00,12.60
2007,09,19,09,01,12.60
2007,09,19,09,02,12.60
2007,09,19,09,03,12.60
2007,09,19,09,04,12.60
2007,09,19,09,05,12.70
2007,09,19,09,06,12.70
2007,09,19,09,07,12.70
2007,09,19,09,08,12.70
2007,09,19,09,09,12.70
2007,09,19,09,10,12.70
2007,09,19,09,11,12.70
2007,09,19,09,12,12.80
2007,09,19,09,13,12.80
2007,09,19,09,14,12.80
2007,09,19,09,15,12.80
2007,09,19,09,16,12.80
2007,09,19,09,17,12.80
2007,09,19,09,18,12.80
2007,09,19,09,19,12.90
2007,09,19,09,20,12.90
2007,09,19,09,21,12.90
2007,09,19,09,22,12.90
2007,09,19,09,23,13.00
2007,09,19,09,24,13.10
2007,09,19,09,25,13.10
2007,09,19,09,26,13.20
2007,09,19,09,27,13.20
2007,09,19,09,28,13.30
2007,09,19,09,29,13.30
2007,09,19,09,30,13.30
2007,09,19,09,31,13.30
2007,09,19,09,32,13.30
2007,09,19,09,33,13.30
2007,09,19,09,34,13.20
2007,09,19,09,35,13.20
2007,09,19,09,36,13.20
2007,09,19,09,37,13.20
2007,09,19,09,38,13.20
2007,09,19,09,39,13.30
2007,09,19,09,40,13.30
2007,09,19,09,41,13.30
2007,09,19,09,42,13.40
2007,09,19,09,43,13.50
2007,09,19,09,44,13.60
2007,09,19,09,45,13.70
2007,09,19,09,46,13.80
2007,09,19,09,47,13.80
2007,09,19,09,48,13.80
2007,09,19,09,52,13.90
2007,09,19,09,53,13.90
2007,09,19,09,54,13.90
2007,09,19,09,55,14.00
2007,09,19,09,56,14.00
2007,09,19,09,57,14.00
2007,09,19,09,58,14.00
2007,09,19,09,59,13.90
2007,09,19,10,00,13.90
2007,09,19,10,01,13.90
2007,09,19,10,02,13.90
2007,09,19,10,03,13.90
2007,09,19,10,04,13.80
2007,09,19,10,05,13.80
2007,09,19,10,06,13.80
2007,09,19,10,07,13.70
2007,09,19,10,08,13.70
2007,09,19,10,09,13.70
2007,09,19,10,10,13.70
2007,09,19,10,11,13.70
2007,09,19,10,12,13.80
2007,09,19,10,13,13.80
2007,09,19,10,14,13.80
2007,09,19,10,15,13.80
2007,09,19,10,16,13.80
2007,09,19,10,17,13.80
2007,09,19,10,18,13.80
2007,09,19,10,19,13.90
2007,09,19,10,20,13.90
2007,09,19,10,21,14.00
2007,09,19,10,22,14.00
2007,09,19,10,23,14.10
2007,09,19,10,24,14.10
2007,09,19,10,25,14.10
2007,09,19,10,26,14.10
2007,09,19,10,27,14.10
2007,09,19,10,28,14.00
2007,09,19,10,29,14.00
2007,09,19,10,30,14.00
2007,09,19,10,31,13.90
2007,09,19,10,32,13.90
2007,09,19,10,33,13.90
2007,09,19,10,34,13.90
2007,09,19,10,35,13.90
2007,09,19,10,36,13.90
2007,09,19,10,37,13.90
2007,09,19,10,38,13.90
2007,09,19,10,39,13.90
2007,09,19,10,40,13.90
2007,09,19,10,41,13.90
2007,09,19,10,42,14.00
2007,09,19,10,43,14.00
2007,09,19,10,44,14.00
2007,09,19,10,45,14.10
2007,09,19,10,46,14.10
2007,09,19,10,47,14.20
2007,09,19,10,48,14.20
2007,09,19,10,49,14.30
2007,09,19,10,50,14.30
2007,09,19,10,51,14.40
2007,09,19,10,52,14.40
2007,09,19,10,53,14.50
2007,09,19,10,54,14.50
2007,09,19,10,55,14.60
2007,09,19,10,56,14.60
2007,09,19,10,57,14.70
2007,09,19,10,58,14.70
2007,09,19,10,59,14.70
2007,09,19,11,00,14.60
2007,09,19,11,01,14.60
2007,09,19,11,02,14.60
2007,09,19,11,03,14.60
2007,09,19,11,04,14.60
2007,09,19,11,05,14.60
2007,09,19,11,06,14.70
2007,09,19,11,07,14.70
2007,09,19,11,08,14.80
2007,09,19,11,09,15.00
2007,09,19,11,10,15.00
2007,09,19,11,11,15.00
2007,09,19,11,12,15.00
2007,09,19,11,13,15.00
2007,09,19,11,14,15.00
2007,09,19,11,15,15.10
2007,09,19,11,16,15.20
2007,09,19,11,17,15.20
2007,09,19,11,18,15.30
2007,09,19,11,19,15.30
2007,09,19,11,20,15.30
2007,09,19,11,21,15.40
2007,09,19,11,22,15.40
2007,09,19,11,23,15.40
2007,09,19,11,24,15.40
2007,09,19,11,25,15.50
2007,09,19,11,26,15.40
2007,09,19,11,27,15.40
2007,09,19,11,28,15.40
2007,09,19,11,29,15.30
2007,09,19,11,30,15.30
2007,09,19,11,31,15.30
2007,09,19,11,32,15.20
2007,09,19,11,33,15.00
2007,09,19,11,34,15.00
2007,09,19,11,35,15.00
2007,09,19,11,36,15.10
2007,09,19,11,37,15.20
2007,09,19,11,38,15.30
2007,09,19,11,39,15.30
2007,09,19,11,40,15.30
2007,09,19,11,41,15.40
2007,09,19,11,42,15.40
2007,09,19,11,43,15.40
2007,09,19,11,44,15.40
2007,09,19,11,45,15.30
2007,09,19,11,46,15.20
2007,09,19,11,47,15.20
2007,09,19,11,48,15.10
2007,09,19,11,49,15.10
2007,09,19,11,50,15.10
2007,09,19,11,51,15.20
2007,09,19,11,52,15.20
2007,09,19,11,53,15.20
2007,09,19,11,54,15.10
2007,09,19,11,55,15.10
2007,09,19,11,56,15.20
2007,09,19,11,57,15.20
2007,09,19,11,58,15.30
2007,09,19,11,59,15.40
2007,09,19,12,00,15.40
2007,09,19,12,01,15.40
2007,09,19,12,02,15.50
2007,09,19,12,03,15.50
2007,09,19,12,04,15.60
2007,09,19,12,05,15.70
2007,09,19,12,06,15.70
2007,09,19,12,07,15.70
2007,09,19,12,08,15.70
2007,09,19,12,09,15.70
2007,09,19,12,10,15.70
2007,09,19,12,11,15.70
2007,09,19,12,12,15.80
2007,09,19,12,13,15.80
2007,09,19,12,14,15.80
2007,09,19,12,15,15.90
2007,09,19,12,16,15.90
2007,09,19,12,17,15.90
2007,09,19,12,18,15.90
2007,09,19,12,19,15.90
2007,09,19,12,20,15.80
2007,09,19,12,21,15.80
2007,09,19,12,22,15.80
2007,09,19,12,23,15.80
2007,09,19,12,24,15.80
2007,09,19,12,25,15.90
2007,09,19,12,26,15.90
2007,09,19,12,27,15.90
2007,09,19,12,28,16.00
2007,09,19,12,29,16.10
2007,09,19,12,30,16.20
2007,09,19,12,31,16.30
2007,09,19,12,32,16.40
2007,09,19,12,33,16.50
2007,09,19,12,34,16.50
2007,09,19,12,35,16.50
2007,09,19,12,36,16.40
2007,09,19,12,37,16.40
2007,09,19,12,38,16.50
2007,09,19,12,39,16.50
2007,09,19,12,40,16.60
2007,09,19,12,41,16.70
2007,09,19,12,42,16.70
2007,09,19,12,43,16.70
2007,09,19,12,44,16.70
2007,09,19,12,45,16.70
2007,09,19,12,46,16.70
2007,09,19,12,47,16.70
2007,09,19,12,48,16.70
2007,09,19,12,49,16.70
2007,09,19,12,50,16.70
2007,09,19,12,51,16.80
2007,09,19,12,52,16.90
2007,09,19,12,53,16.90
2007,09,19,12,54,16.90
2007,09,19,12,55,16.80
2007,09,19,12,56,16.70
2007,09,19,12,57,16.60
2007,09,19,12,58,16.50
2007,09,19,12,59,16.40
2007,09,19,13,00,16.40
2007,09,19,13,01,16.40
2007,09,19,13,02,16.50
2007,09,19,13,03,16.60
2007,09,19,13,04,16.60
2007,09,19,13,05,16.50
2007,09,19,13,06,16.50
2007,09,19,13,07,16.50
2007,09,19,13,08,16.50
2007,09,19,13,09,16.40
2007,09,19,13,10,16.40
2007,09,19,13,11,16.40
2007,09,19,13,12,16.40
2007,09,19,13,13,16.50
2007,09,19,13,14,16.50
2007,09,19,13,15,16.60
2007,09,19,13,16,16.50
2007,09,19,13,17,16.50
2007,09,19,13,18,16.40
2007,09,19,13,19,16.30
2007,09,19,13,20,16.30
2007,09,19,13,21,16.30
2007,09,19,13,22,16.20
2007,09,19,13,23,16.20
2007,09,19,13,24,16.20
2007,09,19,13,25,16.20
2007,09,19,13,26,16.20
2007,09,19,13,27,16.20
2007,09,19,13,28,16.20
2007,09,19,13,29,16.30
2007,09,19,13,30,16.20
2007,09,19,13,31,16.20
2007,09,19,13,32,16.20
2007,09,19,13,33,16.20
2007,09,19,13,34,16.20
2007,09,19,13,35,16.30
2007,09,19,13,36,16.40
2007,09,19,13,37,16.50
2007,09,19,13,38,16.60
2007,09,19,13,39,16.70
2007,09,19,13,40,16.80
2007,09,19,13,41,16.90
2007,09,19,13,42,16.90
2007,09,19,13,43,16.90
2007,09,19,13,44,17.00
2007,09,19,13,45,17.10
2007,09,19,13,46,17.20
2007,09,19,13,47,17.30
2007,09,19,13,48,17.30
2007,09,19,13,49,17.30
2007,09,19,13,50,17.40
2007,09,19,13,51,17.40
2007,09,19,13,52,17.40
2007,09,19,13,53,17.50
2007,09,19,13,54,17.40
2007,09,19,13,55,17.40
2007,09,19,13,56,17.40
2007,09,19,13,57,17.30
2007,09,19,13,58,17.30
2007,09,19,13,59,17.40
2007,09,19,14,00,17.40
2007,09,19,14,01,17.40
2007,09,19,14,02,17.40
2007,09,19,14,03,17.40
2007,09,19,14,04,17.40
2007,09,19,14,05,17.40
2007,09,19,14,06,17.40
2007,09,19,14,07,17.40
2007,09,19,14,08,17.50
2007,09,19,14,09,17.50
2007,09,19,14,10,17.50
2007,09,19,14,11,17.60
2007,09,19,14,12,17.60
2007,09,19,14,13,17.60
2007,09,19,14,14,17.60
2007,09,19,14,15,17.60
2007,09,19,14,16,17.60
2007,09,19,14,17,17.60
2007,09,19,14,18,17.60
2007,09,19,14,19,17.60
2007,09,19,14,20,17.60
2007,09,19,14,21,17.50
2007,09,19,14,22,17.50
2007,09,19,14,23,17.60
2007,09,19,14,24,17.60
2007,09,19,14,25,17.70
2007,09,19,14,26,17.80
2007,09,19,14,27,17.80
2007,09,19,14,28,17.70
2007,09,19,14,29,17.70
2007,09,19,14,30,17.70
2007,09,19,14,31,17.60
2007,09,19,14,32,17.60
2007,09,19,14,33,17.60
2007,09,19,14,34,17.60
2007,09,19,14,35,17.60
2007,09,19,14,36,17.60
2007,09,19,14,37,17.70
2007,09,19,14,38,17.80
2007,09,19,14,39,17.90
2007,09,19,14,40,17.90
2007,09,19,14,41,17.90
2007,09,19,14,42,17.80
2007,09,19,14,43,17.80
2007,09,19,14,44,17.80
2007,09,19,14,45,17.90
2007,09,19,14,46,17.90
2007,09,19,14,47,17.90
2007,09,19,14,48,18.00
2007,09,19,14,49,18.10
2007,09,19,14,50,18.10
2007,09,19,14,51,18.00
2007,09,19,14,52,18.00
2007,09,19,14,53,17.90
2007,09,19,14,54,17.90
2007,09,19,14,55,18.00
2007,09,19,14,56,18.00
2007,09,19,14,57,18.00
2007,09,19,14,58,18.00
2007,09,19,14,59,18.00
2007,09,19,15,00,18.00
2007,09,19,15,01,17.90
2007,09,19,15,02,17.80
2007,09,19,15,03,17.80
2007,09,19,15,04,17.70
2007,09,19,15,05,17.60
2007,09,19,15,06,17.60
2007,09,19,15,07,17.50
2007,09,19,15,08,17.50
2007,09,19,15,09,17.40
2007,09,19,15,10,17.50
2007,09,19,15,11,17.60
2007,09,19,15,12,17.60
2007,09,19,15,13,17.60
2007,09,19,15,14,17.70
2007,09,19,15,15,17.70
2007,09,19,15,16,17.80
2007,09,19,15,17,17.80
2007,09,19,15,18,17.80
2007,09,19,15,19,17.90
2007,09,19,15,20,17.90
2007,09,19,15,21,18.00
2007,09,19,15,22,18.00
2007,09,19,15,23,18.00
2007,09,19,15,24,18.00
2007,09,19,15,25,17.90
2007,09,19,15,26,17.90
2007,09,19,15,27,17.80
2007,09,19,15,28,17.80
2007,09,19,15,29,17.90
2007,09,19,15,30,17.90
2007,09,19,15,31,17.90
2007,09,19,15,32,17.90
2007,09,19,15,33,17.90
2007,09,19,15,34,17.90
2007,09,19,15,35,17.90
2007,09,19,15,36,17.90
2007,09,19,15,37,17.90
2007,09,19,15,38,18.00
2007,09,19,15,39,18.00
2007,09,19,15,40,18.10
2007,09,19,15,41,18.20
2007,09,19,15,42,18.30
2007,09,19,15,43,18.40
2007,09,19,15,44,18.40
2007,09,19,15,45,18.50
2007,09,19,15,46,18.50
2007,09,19,15,47,18.60
2007,09,19,15,48,18.60
2007,09,19,15,49,18.50
2007,09,19,15,50,18.50
2007,09,19,15,51,18.50
2007,09,19,15,52,18.60
2007,09,19,15,53,18.60
2007,09,19,15,54,18.60
2007,09,19,15,55,18.50
2007,09,19,15,56,18.50
2007,09,19,15,57,18.50
2007,09,19,15,58,18.40
2007,09,19,15,59,18.30
2007,09,19,16,00,18.30
2007,09,19,16,01,18.20
2007,09,19,16,02,18.10
2007,09,19,16,03,17.90
2007,09,19,16,04,17.80
2007,09,19,16,05,17.80
2007,09,19,16,06,17.70
2007,09,19,16,07,17.80
2007,09,19,16,08,17.80
2007,09,19,16,09,17.90
2007,09,19,16,10,17.90
2007,09,19,16,11,17.90
2007,09,19,16,12,17.90
2007,09,19,16,13,17.90
2007,09,19,16,14,17.90
2007,09,19,16,15,18.00
2007,09,19,16,16,18.10
2007,09,19,16,17,18.20
2007,09,19,16,18,18.20
2007,09,19,16,19,18.40
2007,09,19,16,20,18.40
2007,09,19,16,21,18.50
2007,09,19,16,22,18.50
2007,09,19,16,23,18.50
2007,09,19,16,24,18.40
2007,09,19,16,25,18.30
2007,09,19,16,26,18.20
2007,09,19,16,27,18.10
2007,09,19,16,28,18.00
2007,09,19,16,29,17.90
2007,09,19,16,30,17.90
2007,09,19,16,31,17.90
2007,09,19,16,32,17.80
2007,09,19,16,33,17.80
2007,09,19,16,34,17.80
2007,09,19,16,35,17.80
2007,09,19,16,36,17.80
2007,09,19,16,37,17.90
2007,09,19,16,38,18.00
2007,09,19,16,39,18.10
2007,09,19,16,40,18.20
2007,09,19,16,41,18.30
2007,09,19,16,42,18.30
2007,09,19,16,43,18.30
2007,09,19,16,44,18.40
2007,09,19,16,45,18.40
2007,09,19,16,46,18.40
2007,09,19,16,47,18.40
2007,09,19,16,48,18.40
2007,09,19,16,49,18.30
2007,09,19,16,50,18.30
2007,09,19,16,51,18.20
2007,09,19,16,52,18.20
2007,09,19,16,53,18.20
2007,09,19,16,54,18.10
2007,09,19,16,55,18.00
2007,09,19,16,56,17.90
2007,09,19,16,57,18.00
2007,09,19,16,58,18.00
2007,09,19,16,59,18.10
2007,09,19,17,00,18.10
2007,09,19,17,01,18.10
2007,09,19,17,02,18.10
2007,09,19,17,03,18.20
2007,09,19,17,04,18.10
2007,09,19,17,05,18.10
2007,09,19,17,06,18.00
2007,09,19,17,07,17.90
2007,09,19,17,08,18.00
2007,09,19,17,09,18.00
2007,09,19,17,10,18.10
2007,09,19,17,11,18.20
2007,09,19,17,12,18.20
2007,09,19,17,13,18.20
2007,09,19,17,14,18.00
2007,09,19,17,15,17.80
2007,09,19,17,16,17.70
2007,09,19,17,17,17.70
2007,09,19,17,18,17.60
2007,09,19,17,19,17.60
2007,09,19,17,20,17.60
2007,09,19,17,21,17.60
2007,09,19,17,22,17.60
2007,09,19,17,23,17.60
2007,09,19,17,24,17.60
2007,09,19,17,25,17.50
2007,09,19,17,26,17.50
2007,09,19,17,27,17.40
2007,09,19,17,28,17.40
2007,09,19,17,29,17.30
2007,09,19,17,30,17.30
2007,09,19,17,31,17.40
2007,09,19,17,32,17.40
2007,09,19,17,33,17.40
2007,09,19,17,34,17.40